Retour au catalogue

STARLINK-37093

ActifCommunicationsVLEO
NORAD 68194·PAYLOAD·🇺🇸 United States

Lancé Mar 14, 2026 depuis Vandenberg Space Force Base

Loading…

Prochains Passages (prochaines 24 heures)

TLE

FraisSource: CelesTrak SupGP

Époque: Sep 14, 2026, 22:50 UTC

1 68194C 26050AD  26257.95187500 -.00007617  00000+0 -22510-3 0  2570
2 68194  53.1570 103.6764 0001311  91.1489 350.7699 15.34385876    16

Suivez STARLINK-37093 en temps réel avec AllMySat

Download on the App Store